Antonito, CO (81120)

5:18 AM MDT on June 29, 2017 (GMT -0600)
Fox Creek | | Change Station
Active Advisory: Fire Weather Warning

Elev 8451 ft 37.07 °N, 106.22 °W | Updated 1 minute ago

Clear
Clear
49.4 °F
Feels Like 48 °F
N
5.0
Wind Variable Wind from WSW

Today
High -- | Low -- °F
--% Chance of Precip.
Yesterday
High -- | Low -- °F
Precip. -- in
Pressure 29.84 in
Visibility 10.0 miles
Clouds Clear
Windchill 48 °F
Dew Point 21 °F
Humidity 32%
Rainfall 0.00 in
Snow Depth Not available.
5:47 AM 8:27 PM
Waxing Crescent, 34% visible
METAR KALS 291052Z AUTO 11004KT 10SM CLR 03/M02 A3010 RMK AO2 SLP103 T00331022 TSNO
Pressure 29.84 in
Visibility 10.0 miles
Clouds Clear
Windchill 48 °F
Dew Point 21 °F
Humidity 32%
Rainfall 0.00 in
Snow Depth Not available.
5:47 AM 8:27 PM
Waxing Crescent, 34% visible
METAR KALS 291052Z AUTO 11004KT 10SM CLR 03/M02 A3010 RMK AO2 SLP103 T00331022 TSNO

Get Your Daily Forecast Email!

Thanks for signing up!

Be on the lookout for a verification email in your inbox.

You'll start receiving severe weather alerts in your inbox..

×

10-Day Weather Forecast

Almanac

Astronomy

Jun. 29, 2017 Rise Set
Actual Time
Civil Twilight
Nautical Twilight
Astronomical Twilight
Moon
Length of Visible Light
Length of Day
Tomorrow will be .
, % of the Moon is Illuminated

Today's Extremes

State Highs State Lows

Community

WunderPhotos

Category 6

Welcome to Category 6. This is the collective home for Weather Underground's featured writeups by Dr. Jeff Masters (right), Bob Henson (left), Chris Burt, and other regular contributors.

Nearby

Air Quality

  Air Quality AQ Index Pollutant
Not available.

Snow Depth

Station Depth Elevation

Earthquake Activity

City Distance Mag. Time & Date
Minimum magnitude displayed is 2.5.

Coastal Water Temperatures

Place Temperature

Stations

Nearby Weather Stations

Station Location Temp. Windchill Dew Point Humidity Wind Precip. Elev Updated Type
                   

Watches & Warnings

Fire Weather Warning
Issued: 4:09 AM MDT Jun. 29, 2017 – National Weather Service

... Red flag warning remains in effect from noon today to 8 PM MDT
this evening for fire weather zones 222... 223 and 224...

* affected area... fire weather zones 222... 223 and 224.

* Winds... west 10 to 15 mph with gusts up to 30 mph.

* Relative humidity... as low as 9 percent.

* Impacts... conditions will be favorable for the rapid ignition,
growth and spread of fires.

Precautionary/preparedness actions...

A red flag warning means that critical fire weather conditions
are either occurring now, or will shortly. A combination of
strong winds, low relative humidity, and warm temperatures can
contribute to extreme fire behavior.



Hodanish